| time (UTC) | temp F | wind direction | speed MPH | gust MPH | rain 1hr in | rain 24hr in | rain mn in | humidity % | barometer mb |
| 20260504223913 | 140 | 179 | 7.0 | 11.0 | 0.00 | 0.00 | 0.00 | 1005.6 | |
| 20260504223408 | 140 | 145 | 4.0 | 10.0 | 0.00 | 0.00 | 0.00 | 1005.5 | |
| 20260504222905 | 140 | 173 | 5.0 | 7.0 | 0.00 | 0.00 | 0.00 | 1005.7 | |
| 20260504222402 | 140 | 170 | 13.0 | 17.0 | 0.00 | 0.00 | 0.00 | 1005.6 | |
| 20260504221901 | 140 | 164 | 12.0 | 15.0 | 0.00 | 0.00 | 0.00 | 1005.5 | |
| 20260504221356 | 140 | 130 | 7.0 | 11.0 | 0.00 | 0.00 | 0.00 | 1005.6 | |
| 20260504220854 | 140 | 179 | 9.0 | 10.0 | 0.00 | 0.00 | 0.00 | 1005.6 | |
| 20260504220350 | 140 | 195 | 3.0 | 3.0 | 0.00 | 0.00 | 0.00 | 1005.7 | |
| 20260504215848 | 140 | 193 | 8.0 | 11.0 | 0.00 | 0.00 | 0.00 | 1005.6 | |
| 20260504215344 | 140 | 195 | 11.0 | 16.0 | 0.00 | 0.00 | 0.00 | 1005.9 | |
| 20260504214840 | 140 | 148 | 10.0 | 14.0 | 0.00 | 0.00 | 0.00 | 1005.9 | |
| 20260504214337 | 140 | 130 | 14.0 | 17.0 | 0.00 | 0.00 | 0.00 | 1006.0 | |
| 20260504213834 | 140 | 165 | 9.0 | 14.0 | 0.00 | 0.00 | 0.00 | 1006.2 | |
| 20260504213329 | 140 | 174 | 14.0 | 16.0 | 0.00 | 0.00 | 0.00 | 1006.0 | |
| 20260504212827 | 140 | 166 | 16.0 | 20.0 | 0.00 | 0.00 | 0.00 | 1006.2 | |
| 20260504212323 | 140 | 176 | 8.0 | 10.0 | 0.00 | 0.00 | 0.00 | 1006.4 | |
| 20260504211821 | 140 | 201 | 12.0 | 16.0 | 0.00 | 0.00 | 0.00 | 1006.6 | |
| 20260504211317 | 140 | 155 | 9.0 | 13.0 | 0.00 | 0.00 | 0.00 | 1006.4 | |
| 20260504210815 | 140 | 159 | 8.0 | 10.0 | 0.00 | 0.00 | 0.00 | 1006.5 | |
| 20260504210312 | 140 | 156 | 9.0 | 10.0 | 0.00 | 0.00 | 0.00 | 1006.4 | |
| 20260504205809 | 140 | 186 | 8.0 | 11.0 | 0.00 | 0.00 | 0.00 | 1006.7 | |
| 20260504205306 | 140 | 147 | 8.0 | 11.0 | 0.00 | 0.00 | 0.00 | 1007.0 | |
| 20260504204804 | 140 | 198 | 9.0 | 11.0 | 0.00 | 0.00 | 0.00 | 1006.8 | |
| 20260504204302 | 140 | 182 | 14.0 | 17.0 | 0.00 | 0.00 | 0.00 | 1007.0 | |
| 20260504203802 | 140 | 181 | 7.0 | 11.0 | 0.00 | 0.00 | 0.00 | 1007.0 | |
| 20260504203258 | 140 | 156 | 9.0 | 11.0 | 0.00 | 0.00 | 0.00 | 1007.4 | |
| 20260504202753 | 140 | 153 | 7.0 | 10.0 | 0.00 | 0.00 | 0.00 | 1007.3 | |
| 20260504202250 | 140 | 160 | 15.0 | 18.0 | 0.00 | 0.00 | 0.00 | 1007.9 | |
| 20260504201747 | 140 | 171 | 12.0 | 14.0 | 0.00 | 0.00 | 0.00 | 1007.7 | |
| 20260504201244 | 140 | 181 | 10.0 | 14.0 | 0.00 | 0.00 | 0.00 | 1007.8 | |
| 20260504200742 | 140 | 153 | 8.0 | 10.0 | 0.00 | 0.00 | 0.00 | 1007.9 | |
| 20260504200238 | 140 | 138 | 5.0 | 6.0 | 0.00 | 0.00 | 0.00 | 1007.8 | |
| 20260504195735 | 140 | 173 | 8.0 | 9.0 | 0.00 | 0.00 | 0.00 | 1008.1 | |
| 20260504195230 | 140 | 188 | 8.0 | 10.0 | 0.00 | 0.00 | 0.00 | 1008.1 | |
| 20260504194728 | 140 | 136 | 11.0 | 17.0 | 0.00 | 0.00 | 0.00 | 1008.2 | |
| 20260504194224 | 140 | 177 | 10.0 | 13.0 | 0.00 | 0.00 | 0.00 | 1008.3 | |
| 20260504193720 | 140 | 195 | 13.0 | 15.0 | 0.00 | 0.00 | 0.00 | 1008.4 | |
| 20260504193218 | 140 | 184 | 8.0 | 10.0 | 0.00 | 0.00 | 0.00 | 1008.3 | |
| 20260504192716 | 140 | 164 | 11.0 | 16.0 | 0.00 | 0.00 | 0.00 | 1008.5 | |
| 20260504192214 | 140 | 166 | 10.0 | 13.0 | 0.00 | 0.00 | 0.00 | 1008.8 | |
| 20260504191712 | 140 | 175 | 10.0 | 11.0 | 0.00 | 0.00 | 0.00 | 1008.8 | |
| 20260504191209 | 140 | 199 | 13.0 | 16.0 | 0.00 | 0.00 | 0.00 | 1008.9 | |
| 20260504190704 | 140 | 120 | 10.0 | 14.0 | 0.00 | 0.00 | 0.00 | 1008.9 | |
| 20260504190201 | 140 | 209 | 7.0 | 10.0 | 0.00 | 0.00 | 0.00 | 1009.1 | |
| 20260504185657 | 140 | 180 | 11.0 | 13.0 | 0.00 | 0.00 | 0.00 | 1009.0 | |
| 20260504185153 | 140 | 169 | 11.0 | 15.0 | 0.00 | 0.00 | 0.00 | 1009.2 | |
| 20260504184650 | 140 | 153 | 8.0 | 9.0 | 0.00 | 0.00 | 0.00 | 1009.1 | |
| 20260504184145 | 140 | 185 | 13.0 | 15.0 | 0.00 | 0.00 | 0.00 | 1009.2 | |
| 20260504183642 | 140 | 177 | 7.0 | 9.0 | 0.00 | 0.00 | 0.00 | 1009.4 | |
| 20260504183139 | 140 | 160 | 9.0 | 13.0 | 0.00 | 0.00 | 0.00 | 1009.4 | |
| 20260504182637 | 140 | 175 | 5.0 | 9.0 | 0.00 | 0.00 | 0.00 | 1009.3 | |
| 20260504182134 | 140 | 201 | 9.0 | 11.0 | 0.00 | 0.00 | 0.00 | 1009.4 | |
| 20260504181632 | 140 | 227 | 9.0 | 11.0 | 0.00 | 0.00 | 0.00 | 1009.7 | |
| 20260504181129 | 140 | 198 | 11.0 | 14.0 | 0.00 | 0.00 | 0.00 | 1009.7 | |
| 20260504180629 | 140 | 117 | 8.0 | 10.0 | 0.00 | 0.00 | 0.00 | 1009.7 | |
| 20260504180127 | 140 | 240 | 10.0 | 13.0 | 0.00 | 0.00 | 0.00 | 1009.8 | |
| 20260504175623 | 140 | 176 | 11.0 | 13.0 | 0.00 | 0.00 | 0.00 | 1009.9 | |
| 20260504175120 | 140 | 185 | 11.0 | 15.0 | 0.00 | 0.00 | 0.00 | 1010.2 | |
| 20260504174619 | 140 | 190 | 9.0 | 10.0 | 0.00 | 0.00 | 0.00 | 1010.2 | |
| 20260504174114 | 140 | 180 | 13.0 | 17.0 | 0.00 | 0.00 | 0.00 | 1010.3 | |
| 20260504173612 | 140 | 206 | 10.0 | 13.0 | 0.00 | 0.00 | 0.00 | 1010.3 | |
| 20260504173109 | 140 | 158 | 10.0 | 13.0 | 0.00 | 0.00 | 0.00 | 1010.3 | |
| 20260504172605 | 140 | 181 | 18.0 | 22.0 | 0.00 | 0.00 | 0.00 | 1010.3 | |
| 20260504172102 | 140 | 177 | 10.0 | 11.0 | 0.00 | 0.00 | 0.00 | 1010.5 | |
| 20260504171558 | 140 | 198 | 6.0 | 9.0 | 0.00 | 0.00 | 0.00 | 1010.4 | |
| 20260504171056 | 140 | 120 | 3.0 | 3.0 | 0.00 | 0.00 | 0.00 | 1010.8 | |
| 20260504170551 | 140 | 181 | 9.0 | 16.0 | 0.00 | 0.00 | 0.00 | 1010.5 | |
| 20260504150930 | 140 | 187 | 13.0 | 16.0 | 0.00 | 0.00 | 0.00 | 1012.3 | |
| 20260504150426 | 140 | 194 | 7.0 | 9.0 | 0.00 | 0.00 | 0.00 | 1012.3 | |
| 20260504140847 | 140 | 187 | 13.0 | 16.0 | 0.00 | 0.00 | 0.00 | 1012.8 | |
| 20260504140343 | 140 | 168 | 9.0 | 10.0 | 0.00 | 0.00 | 0.00 | 1012.6 | |
| 20260504130812 | 140 | 169 | 8.0 | 11.0 | 0.00 | 0.00 | 0.00 | 1012.9 | |
| 20260504130308 | 140 | 136 | 5.0 | 6.0 | 0.00 | 0.00 | 0.00 | 1012.8 | |
| 20260504120232 | 140 | 156 | 3.0 | 3.0 | 0.00 | 0.00 | 0.00 | 1012.5 | |
| 20260504110659 | 140 | 160 | 5.0 | 6.0 | 0.00 | 0.00 | 0.00 | 1012.4 | |
| 20260504110155 | 140 | 162 | 4.0 | 5.0 | 0.00 | 0.00 | 0.00 | 1012.5 | |
| 20260504100119 | 140 | 167 | 7.0 | 8.0 | 0.00 | 0.00 | 0.00 | 1012.9 | |
| 20260504081512 | 140 | 147 | 0.0 | 0.0 | 0.00 | 0.00 | 0.00 | 1013.6 | |
| 20260504081008 | 140 | 165 | 1.0 | 1.0 | 0.00 | 0.00 | 0.00 | 1013.6 | |
| 20260504080504 | 140 | 161 | 2.0 | 2.0 | 0.00 | 0.00 | 0.00 | 1013.7 | |
| 20260504050305 | 140 | 178 | 4.0 | 6.0 | 0.00 | 0.00 | 0.00 | 1015.4 | |
| 20260504045802 | 140 | 183 | 0.0 | 0.0 | 0.00 | 0.00 | 0.00 | 1015.7 | |
| 20260504045304 | 140 | 152 | 3.0 | 5.0 | 0.00 | 0.00 | 0.00 | 1015.4 | |
| 20260504044800 | 140 | 172 | 5.0 | 6.0 | 0.00 | 0.00 | 0.00 | 1015.7 | |
| 20260504044257 | 140 | 133 | 4.0 | 6.0 | 0.00 | 0.00 | 0.00 | 1015.6 | |
| 20260504043755 | 140 | 190 | 3.0 | 3.0 | 0.00 | 0.00 | 0.00 | 1015.6 | |
| 20260504043251 | 140 | 158 | 4.0 | 5.0 | 0.00 | 0.00 | 0.00 | 1015.7 | |
| 20260504042749 | 140 | 167 | 2.0 | 2.0 | 0.00 | 0.00 | 0.00 | 1015.6 | |
| 20260504042245 | 140 | 183 | 3.0 | 3.0 | 0.00 | 0.00 | 0.00 | 1015.6 | |
| 20260504041742 | 140 | 170 | 5.0 | 7.0 | 0.00 | 0.00 | 0.00 | 1015.6 | |
| 20260504041238 | 140 | 159 | 4.0 | 5.0 | 0.00 | 0.00 | 0.00 | 1015.7 | |
| 20260504040734 | 140 | 173 | 4.0 | 5.0 | 0.00 | 0.00 | 0.00 | 1015.6 | |
| 20260504040232 | 140 | 155 | 7.0 | 7.0 | 0.00 | 0.00 | 0.00 | 1015.4 | |
| 20260504035728 | 140 | 189 | 5.0 | 7.0 | 0.00 | 0.00 | 0.00 | 1015.7 | |
| 20260504035225 | 140 | 165 | 4.0 | 5.0 | 0.00 | 0.00 | 0.00 | 1015.8 | |
| 20260504034723 | 140 | 180 | 4.0 | 5.0 | 0.00 | 0.00 | 0.00 | 1015.8 | |
| 20260504034220 | 140 | 191 | 3.0 | 5.0 | 0.00 | 0.00 | 0.00 | 1015.7 | |
| 20260504033717 | 140 | 171 | 5.0 | 6.0 | 0.00 | 0.00 | 0.00 | 1015.9 | |
| 20260504033214 | 140 | 151 | 3.0 | 3.0 | 0.00 | 0.00 | 0.00 | 1015.7 | |
| 20260504032711 | 140 | 146 | 2.0 | 5.0 | 0.00 | 0.00 | 0.00 | 1015.7 | |
| 20260504032209 | 140 | 150 | 4.0 | 5.0 | 0.00 | 0.00 | 0.00 | 1015.6 | |
| 20260504031705 | 140 | 177 | 3.0 | 5.0 | 0.00 | 0.00 | 0.00 | 1015.4 | |
| 20260504031202 | 140 | 178 | 3.0 | 5.0 | 0.00 | 0.00 | 0.00 | 1015.7 | |
| 20260504030658 | 140 | 146 | 4.0 | 5.0 | 0.00 | 0.00 | 0.00 | 1015.4 | |
| 20260504030155 | 140 | 146 | 0.0 | 0.0 | 0.00 | 0.00 | 0.00 | 1015.5 | |
| 20260504025652 | 140 | 169 | 0.0 | 0.0 | 0.00 | 0.00 | 0.00 | 1015.5 | |
| 20260504025148 | 140 | 178 | 0.0 | 0.0 | 0.00 | 0.00 | 0.00 | 1015.7 | |
| 20260504024646 | 140 | 174 | 0.0 | 0.0 | 0.00 | 0.00 | 0.00 | 1015.7 | |
| 20260504024142 | 140 | 188 | 0.0 | 0.0 | 0.00 | 0.00 | 0.00 | 1015.5 | |
| 20260504023639 | 140 | 176 | 0.0 | 0.0 | 0.00 | 0.00 | 0.00 | 1015.3 | |
| 20260504023135 | 140 | 188 | 0.0 | 0.0 | 0.00 | 0.00 | 0.00 | 1015.0 | |
| 20260504022632 | 140 | 142 | 4.0 | 5.0 | 0.00 | 0.00 | 0.00 | 1015.2 | |
| 20260504022127 | 140 | 176 | 0.0 | 0.0 | 0.00 | 0.00 | 0.00 | 1015.1 | |
| 20260504021626 | 140 | 167 | 0.0 | 0.0 | 0.00 | 0.00 | 0.00 | 1015.0 | |
| 20260504021122 | 140 | 164 | 0.0 | 0.0 | 0.00 | 0.00 | 0.00 | 1015.1 | |
| 20260504020619 | 140 | 168 | 3.0 | 3.0 | 0.00 | 0.00 | 0.00 | 1015.1 | |
| 20260504020115 | 140 | 155 | 0.0 | 0.0 | 0.00 | 0.00 | 0.00 | 1015.1 | |
| 20260504015612 | 140 | 173 | 2.0 | 3.0 | 0.00 | 0.00 | 0.00 | 1015.0 | |
| 20260504015108 | 140 | 145 | 4.0 | 5.0 | 0.00 | 0.00 | 0.00 | 1014.8 | |
| 20260504014604 | 140 | 186 | 0.0 | 1.0 | 0.00 | 0.00 | 0.00 | 1015.0 | |
| 20260504014101 | 140 | 184 | 2.0 | 2.0 | 0.00 | 0.00 | 0.00 | 1015.0 | |
| 20260504013559 | 140 | 170 | 3.0 | 3.0 | 0.00 | 0.00 | 0.00 | 1015.0 | |
| 20260504013056 | 140 | 158 | 3.0 | 5.0 | 0.00 | 0.00 | 0.00 | 1015.0 | |
| 20260504012553 | 140 | 179 | 3.0 | 5.0 | 0.00 | 0.00 | 0.00 | 1014.9 | |
| 20260504012051 | 140 | 165 | 3.0 | 3.0 | 0.00 | 0.00 | 0.00 | 1014.7 | |
| 20260504011547 | 140 | 191 | 0.0 | 0.0 | 0.00 | 0.00 | 0.00 | 1014.7 | |
| 20260504011043 | 140 | 183 | 0.0 | 0.0 | 0.00 | 0.00 | 0.00 | 1014.6 | |
| 20260504010539 | 140 | 173 | 0.0 | 0.0 | 0.00 | 0.00 | 0.00 | 1014.5 | |
| 20260504010036 | 140 | 184 | 3.0 | 3.0 | 0.00 | 0.00 | 0.00 | 1014.5 | |
| 20260504005532 | 140 | 190 | 3.0 | 5.0 | 0.00 | 0.00 | 0.00 | 1014.5 | |
| 20260504005030 | 140 | 192 | 4.0 | 5.0 | 0.00 | 0.00 | 0.00 | 1014.7 | |
| 20260504004528 | 140 | 180 | 3.0 | 3.0 | 0.00 | 0.00 | 0.00 | 1014.5 | |
| 20260504004024 | 140 | 197 | 4.0 | 5.0 | 0.00 | 0.00 | 0.00 | 1014.5 | |
| 20260504003520 | 140 | 182 | 4.0 | 6.0 | 0.00 | 0.00 | 0.00 | 1014.9 | |
| 20260504003012 | 140 | 185 | 5.0 | 6.0 | 0.00 | 0.00 | 0.00 | 1014.6 | |
| 20260504002508 | 140 | 170 | 4.0 | 6.0 | 0.00 | 0.00 | 0.00 | 1014.6 | |
| 20260504002006 | 140 | 168 | 9.0 | 10.0 | 0.00 | 0.00 | 0.00 | 1014.8 | |
| 20260504001504 | 140 | 189 | 8.0 | 10.0 | 0.00 | 0.00 | 0.00 | 1014.6 | |
| 20260504001000 | 140 | 193 | 5.0 | 6.0 | 0.00 | 0.00 | 0.00 | 1014.8 | |
| 20260504000457 | 140 | 166 | 6.0 | 9.0 | 0.00 | 0.00 | 0.00 | 1014.9 | |
| 20260503235954 | 140 | 179 | 6.0 | 8.0 | 0.00 | 0.00 | 0.00 | 1014.8 | |
| 20260503235452 | 140 | 222 | 5.0 | 7.0 | 0.00 | 0.00 | 0.00 | 1015.0 | |
| 20260503234949 | 140 | 180 | 6.0 | 8.0 | 0.00 | 0.00 | 0.00 | 1015.0 | |
| 20260503234446 | 140 | 203 | 6.0 | 8.0 | 0.00 | 0.00 | 0.00 | 1015.1 | |
| 20260503233945 | 140 | 156 | 4.0 | 5.0 | 0.00 | 0.00 | 0.00 | 1014.8 | |
| 20260503233440 | 140 | 164 | 6.0 | 8.0 | 0.00 | 0.00 | 0.00 | 1015.0 | |
| 20260503232937 | 140 | 162 | 8.0 | 10.0 | 0.00 | 0.00 | 0.00 | 1015.1 | |
| 20260503232434 | 140 | 196 | 3.0 | 5.0 | 0.00 | 0.00 | 0.00 | 1014.8 | |
| 20260503231932 | 140 | 174 | 10.0 | 11.0 | 0.00 | 0.00 | 0.00 | 1014.8 | |
| 20260503231429 | 140 | 188 | 6.0 | 8.0 | 0.00 | 0.00 | 0.00 | 1015.0 | |
| 20260503230926 | 140 | 193 | 10.0 | 13.0 | 0.00 | 0.00 | 0.00 | 1014.8 | |
| 20260503230422 | 140 | 198 | 8.0 | 9.0 | 0.00 | 0.00 | 0.00 | 1015.0 | |
| 20260503225920 | 140 | 137 | 6.0 | 7.0 | 0.00 | 0.00 | 0.00 | 1015.3 | |
| 20260503225416 | 140 | 184 | 7.0 | 8.0 | 0.00 | 0.00 | 0.00 | 1015.2 | |
| 20260503224912 | 140 | 176 | 9.0 | 11.0 | 0.00 | 0.00 | 0.00 | 1015.3 | |
| 20260503224409 | 140 | 189 | 7.0 | 8.0 | 0.00 | 0.00 | 0.00 | 1015.1 |